Terminal Aerodrome Forecast
Issued by NWS

Home | Current Version | Previous Version | Text Only | Print | Product List | Glossary On
Versions: 1 2 3 4 5 6 7 8 9 10 11 12 13 14 15 16 17 18 19 20 21 22 23 24 25 26 27 28 29 30 31 32 33 34 35 36 37 38 39 40 41 42 43 44 45 46 47 48 49
307
FTAK31 PANC 120916 AAB
TAFASN
TAF AMD
PASN 120916Z 1209/1306 07013KT P6SM VCSH OVC006
      TEMPO 1209/1211 4SM BR
     FM121200 06014KT 4SM -SHSNRA BR OVC003=

USA.gov is the U.S. government's official web portal to all federal, state and local government web resources and services.